COSMOS 2308 (GLONASS)

Satellite information

Favourite Embed

Satellite Type and Status

PAYLOADIN ORBIT

Key statistics

Satellite COSMOS 2308 (GLONASS) at a glance.

Uptime

11143

Days in orbit

Revolutions

≈ 2.1

Per day

Orbit

MEO

Medium Earth Orbit

Inclination

64.2

Latest

Satellite identification and parameters

Extended collection of information and parameters for COSMOS 2308 (GLONASS).

Object identification

Identified? True

Debris? False

Object name: COSMOS 2308 (GLONASS)

International designator: 1995-009B

Object number (NORAD): 23512

Object ID (CCSDS): 23512

Country: COMMONWEALTH OF INDEPENDENT STATES (CIS)

Current information (Y/N): Y

RCS size: LARGE

Orbital parameters

Period: 675.739 minutes

Inclination: 64.1943 deg

SMA: 25508.19 km

Apoapsis: 19144.468 km

Periapsis: 19115.641 km

RAAN: 311.3079 deg

Eccentricy: 0.00056506

Argument of periapsis: 309.8709 deg

Mean anomaly: 46.3646 deg

Mean motion: 2.1309993 rev/day

Mean motion (dot): -0.00000022 rev/day2

B* drag term: 0.0 1/REarth

Two-line elements (TLE)

Creation date: Sept. 3, 2025, 10:15 a.m.

Reference frame: TEME

Reference center: EARTH

Epoch: Sept. 3, 2025, 12:48 a.m. UTC

TLE line 0: 0 COSMOS 2308 (GLONASS)

TLE line 1: 1 23512U 95009B 25246.03370324 -.00000022 00000-0 00000-0 0 9992

TLE line 2: 2 23512 64.1943 311.3079 0005651 309.8709 46.3646 2.13099930237084

Live tracking on map

Real-time ground track for satellite COSMOS 2308 (GLONASS).

In-orbit conjunctions

There are no conjunctions computed for COSMOS 2308 (GLONASS), at the moment. Check back to stay up to date, as we update our databases every day.

Go to all conjunctions

Associated space launch

GLONASS navigation satellites

COSMOS 2308 (GLONASS) was lifted into orbit during the mission ‘Proton | Uragan 63 to 65’, on board a Proton space rocket.

The launch took place on March 7, 1995, 9:23 a.m. from 200/39 (200L).

For more information about the launch, click the button.

Launch to space Proton | Uragan 63 to 65
Proton | Uragan 63 to 65

Agency: N/A

Status: Launch Successful

Launch date: March 7, 1995, 9:23 a.m. UTC

Rocket: Proton

Launch pad: 200/39 (200L)

Location: Baikonur Cosmodrome, Republic of Kazakhstan

...

Latest news about this satellite

There are no fresh news available about this satellite. Check back as we update our databases every day.


Newsletter sign-up

Weekly statistics, charts and insights to help you stay on top of the space industry.